661  
ASUS41 KAKQ 170715  
RWRAKQ  
 
REGIONAL WEATHER ROUNDUP  
NATIONAL WEATHER SERVICE WAKEFIELD VA  
300 AM EDT TUE OCT 17 2017  
 
NOTE: "FAIR" INDICATES FEW OR NO CLOUDS BELOW 12,000 FEET WITH NO  
SIGNIFICANT WEATHER AND/OR S TO VISIBILITY
. * = DENOTES  
STATION MAY NOT REPORT PRECIPITATION (E.G., RAIN,SNOW,ETC.),
 
THUNDER OR FOG.  
 
VAZ042-051-052>054-056-170800-  
NORTHERN VIRGINIA  
 
CITY SKY/WX TMP DP RH WIND PRES REMARKS
 
WASH NATIONAL CLEAR 50 39 66 N9 30.29R  
DULLES CLEAR 47 36 65 N7 30.28R  
FORT BELVOIR CLEAR 46 38 74 NW5 30.28R  
QUANTICO PTCLDY 48 38 68 N10 30.29R  
FREDERICKSBRG* CLEAR 46 40 81 NW6 30.27S  
STAFFORD* PTCLDY 39 39 100 CALM 30.32S  
WARRENTON PTCLDY 38 34 85 NW3 30.28S  
CULPEPER* CLEAR 42 37 83 CALM 30.30R  
MANASSAS* CLEAR 41 37 86 NW5 30.29R  
LEESBURG* CLEAR 45 39 81 N5 30.30R  
WINCHESTER PTCLDY 41 34 75 NW3 30.29S  
FRONT ROYAL* SUNNY 41 36 81 MISG 30.28F  
LURAY* SUNNY 41 37 87 SE5 30.29R  

 
 
VAZ048-049-060>072-079>083-170800-  
CENTRAL AND SOUTH CENTRAL VIRGINIA  
 
CITY SKY/WX TMP DP RH WIND PRES REMARKS
 
RICHMOND CLEAR 47 39 74 N10 30.25S  
CHESTERFIELD* NOT AVBL  
PETERSBURG* CLEAR 47 38 70 N6 30.26S  
HANOVER CLEAR 47 38 71 CALM 30.27S  
TAPPAHANNOCK* CLEAR 48 33 55 NE3 30.26R  
QUINTON* FAIR 44 41 88 NW3 30.25S  
CHARLOTTSVILLE PTCLDY 46 39 76 CALM 30.28R  
GORDONSVILLE* MOSUNNY 39 39 100 CALM 30.28S  
ORANGE* PTCLDY 41 37 87 CALM 30.28S  
LOUISA* CLEAR 37 36 93 CALM 30.27S  
BUMPASS* FAIR 50 37 60 N5 30.27S  
FARMVILLE* CLEAR 44 43 96 CALM 30.27S  
CREWE* FAIR 45 44 95 NW3 30.27S  
FORT PICKETT* FAIR 46 42 86 N6 30.26R  
CHASE CITY* FAIR 46 40 82 CALM 30.27R  
CLARKSVILLE* FAIR 48 41 76 N5 30.26R  
SOUTH HILL* CLEAR 44 42 92 N7 30.31S  
LAWRENCEVILLE* FAIR 46 40 77 N5 30.25S  
EMPORIA* CLEAR 43 39 87 NW3 30.25F  

 
 
VAZ088>098-170800-  
SOUTHEAST VIRGINIA  
 
CITY SKY/WX TMP DP RH WIND PRES REMARKS
 
NORFOLK CLEAR 60 45 57 NE16 30.19S  
VIRGINIA BEACH PTCLDY 57 37 47 N15 30.18S  
NORFOLK NAVAL MOCLDY 58 44 60 N18G24 30.21  
WEST POINT* CLEAR 47 41 80 CALM 30.26R  
SALUDA* FAIR 54 43 66 N14 30.23R  
NEWPORT NEWS CLEAR 53 41 63 N8 30.22R  
LANGLEY AFB CLEAR 54 42 63 N10 30.21R  
FORT EUSTIS CLEAR 53 43 68 N10 30.20S  
WILLIAMSBURG* CLEAR 48 45 87 N5 30.24S  
HR EXEC AP* NOT AVBL  
FRANKLIN* CLEAR 46 40 80 N5 30.23S  
US460-WAKEFLD CLEAR 48 40 73 VRB3 30.23S  

 
 
VAZ020-022-025-037-045-170800-  
WEST CENTRAL AND SOUTHWEST VIRGINIA  
 
CITY SKY/WX TMP DP RH WIND PRES REMARKS
 
STAUNTON* CLEAR 35 33 95 CALM 30.30S  
WAYNESBORO* SUNNY 37 37 99 CALM 30.29R  
HOT SPRINGS VA CLEAR 38 37 99 CALM 30.27S  
LYNCHBURG CLEAR 40 38 93 NW3 30.28S  
DANVILLE CLEAR 49 40 71 N6 30.27S  
SOUTH BOSTON* FAIR 41 40 95 CALM 30.27R  
MARTINSVILLE CLEAR 37 37 98 NW3 30.31S  
ROANOKE CLEAR 44 40 85 CALM 30.31S  
BLACKSBURG NOT AVBL  
DUBLIN* CLEAR 43 38 82 CALM 30.31S  
MARION* CLEAR 36 33 90 CALM 30.32S  
HILLSVILLE* CLEAR 40 32 73 CALM 30.27F  
RICHLANDS* FAIR 41 36 84 CALM 30.31R  
WISE* N/A N/A N/A N/A CALM 30.32R  
ABINGDON* CLEAR 40 38 93 CALM 30.31R  

 
 
MDZ021>025-VAZ099-100-170800-  
SOUTHERN MARYLAND AND THE DELMARVA PENINSULA  
 
CITY SKY/WX TMP DP RH WIND PRES REMARKS
 
PATUXENT RIVER PTCLDY 54 39 57 NE10G17 30.25R  
BAY BRIDGE APT CLEAR 50 39 66 N6 30.26S  
LEONARDTOWN NOT AVBL  
DOVER CLEAR 45 37 76 N12 30.25R  
GEORGETOWN CLEAR 50 39 66 N6 30.25R  
EASTON CLEAR 46 38 73 NE7 30.29S  
CAMBRIDGE CLEAR 50 41 71 N8G15 30.25R  
SALISBURY CLEAR 45 41 86 N7 30.24R  
OCEAN CITY CLEAR 52 40 63 NE14G25 30.23R  
WALLOPS ISLAND CLEAR 47 43 86 N8 30.23R  
ACCOMACK* CLEAR 49 43 78 N8 30.22R  

 
 
NCZ012>017-030>032-170800-  
NORTH CENTRAL AND EASTERN NORTH CAROLINA  
 
CITY SKY/WX TMP DP RH WIND PRES REMARKS
 
ROANOKE RAPIDS FAIR 46 41 81 N7 30.23F  
RALEIGH PTCLDY 49 43 80 NE6 30.25S  
ELIZABETH CITY PTCLDY 56 48 74 N13 30.19S  
AHOSKIE* CLEAR 47 41 79 N6 30.23S  
EDENTON* PTCLDY 50 46 86 CALM 30.21R  
CURRITUCK* PTCLDY 59 41 52 N15G24 30.19S HAZE  
KILL DEVIL HLS PTCLDY 60 41 49 N12G25 30.14F  
MANTEO PTCLDY N/A N/A N/A NE18G31 30.16S  
CAPE HATTERAS CLOUDY 64 49 57 NE14G28 30.12F  
TARBORO* NOT AVBL  
GOLDSBORO CLEAR 51 45 79 N7 30.20S  
WASHINGTON CLEAR 49 43 82 N6 30.20S  
GREENVILLE CLEAR 45 43 93 N5 30.22S  
NEW BERN CLEAR 54 47 77 N13 30.19S  
WILMINGTON CLOUDY 56 45 66 N12 30.17S  

 
 
VAZ048-170800-  
ELSEWHERE  
 
CITY SKY/WX TMP DP RH WIND PRES REMARKS
 
HARRISBURG PA CLEAR 44 34 67 CALM 30.28R  
BALTIMORE PTCLDY 40 39 97 NW3 30.27R  
ANNAPOLIS CLEAR 53 44 71 N7 30.26S  
ANDREWS AFB CLEAR 44 36 73 N7 30.26S  
PHILADELPHIA CLEAR 45 33 63 N8 30.28S  
HENDERSON NC CLEAR 45 38 79 CALM 30.26R  
GREENSBORO CLEAR 47 41 80 N6 30.26S  
ROCKY MOUNT PTCLDY 49 44 83 N9 30.24R  

 
 
VAZ100-170800-  
MARINE  
 
STATION/POSITION TIME TEMP WIND PRES WAVE SWELL
 
AIR SEA DIR/SP/G HT/PER HT/PER  
(UTC) (F) (DEG/KT/KT) (MB) (FT/S) (FT/S)  
BRANDYWINE LGT 0642 20/ 25/ 31 1024.1F  
CAPE MAY NJ 0648 66 40/ 5/ 12 1023.7R  
LEWES DE 0648 62 30/ 21/ 25 1024.0R  
15NM E FENWICK I 0650 55 68 360/ 23/ 29 1023.0R 6/ 6 2/11  
OCEAN-CITY-INLET 0648 66 30/ 10/ 16 1023.9R  
WACHAPREAGUE VA 0642 65 350/ 5/ 9 1023.1R  
THOMAS POINT MD 0700 54 68 50/ 19/ 21 N/A  
COVE POINT MD 0642 50/ 17/ 22 1024.7R  
SOLOMONS ISLAND 0642 70 350/ 5/ 10 1023.8R  
BISHOPS HEAD MD 0648 64 20/ 12/ 17 1024.1R  
PINEY POINT MD 0642 10/ 15/ 17 N/A  
CAMBRIDGE MD 0648 67 1025.1R  
LEWISETTA VA 0642 66 20/ 11/ 15 1023.7S  
RAPPAHANNOCK LGT 0642 10/ 20/ 26 1023.5R  
YORK RVR RNG VA 0642 360/ 17/ 20 1023.3R  
YORKTOWN VA 0642 71 350/ 13/ 15 1023.2R  
DOMINION TERM VA 0642 360/ 9/ 13 1023.2R  
KIPTOPEKE VA 0642 70 30/ 6/ 11 N/A  
CAPE HENRY VA 0642 20/ 26/ 29 N/A  
WILLOUBY STN VA 0642 350/ 16/ 19 1022.5S  
S CRANEY ISL VA 0642 350/ 14/ 20 1022.5R  
CAPE HENRY BUOY 0630 71 N/A 7/ 6  
CAPE CHARLES BUO 0651 71 N/A 5/ 6  
64NM E OF VA BCH 0650 62 69 20/ 25/ 31 1020.6F 9/ 8 3/11  
DUCK PIER NC 0642 70 20/ 28/ 33 1020.6F  
44100 DUCK FRF 0635 71 N/A 9/ 7 2/11  
44056 DUCK FRF 0630 72 N/A 8/ 7 2/13  
OREGON INLET NC 0642 70 20/ 18/ 25 1020.7R  
HATTERAS NC 0642 72 20/ 24/ 32 1020.0R  
DIAMOND SHLS NC 0650 67 81 20/ 27/ 33 1018.6F 9/ 7 2/11  
CAPE LOOKOUT NC 0700 62 10/ 24/ 29 1019.7F  

 
 
 
CLICK HERE TO GO TO PREVIOUS BULLETINS.

The Nexlab VA Page
The Nexlab NC Page
The Nexlab MD Page Main Text Page